Date,TemperatureHighF,TemperatureAvgF,TemperatureLowF,DewpointHighF,DewpointAvgF,DewpointLowF,HumidityHigh,HumidityAvg,HumidityLow,PressureMaxIn,PressureMinIn,WindSpeedMaxMPH,WindSpeedAvgMPH,GustSpeedMaxMPH,PrecipitationSumIn
2013-9-1,76.1,65.1,53.4,68.1,60.3,49.0,89,84,71,29.82,29.61,12,1,12,0.30
2013-9-2,60.1,53.8,50.2,50.5,48.3,46.9,90,82,68,29.95,29.81,44,2,44,0.00
2013-9-3,75.9,62.2,51.1,58.6,52.8,47.5,90,73,50,29.96,29.81,45,1,45,0.00
2013-9-4,67.3,58.6,46.2,57.5,48.8,41.3,83,70,54,30.14,29.81,56,1,56,0.05
2013-9-5,70.7,54.6,42.4,54.0,45.7,38.5,88,74,51,30.25,30.09,56,2,56,0.00
2013-9-6,83.1,67.6,52.2,70.2,60.2,47.2,88,77,63,30.09,29.81,53,1,53,0.04
2013-9-7,76.8,65.1,52.7,69.7,60.6,49.4,90,86,76,30.07,29.78,2,0,2,0.10
2013-9-8,65.3,55.7,47.1,56.3,50.8,44.0,91,84,71,30.14,29.95,53,1,53,0.00
2013-9-9,69.8,63.3,56.3,64.7,57.8,49.8,90,82,72,29.95,29.64,56,1,56,0.00
2013-9-10,75.4,66.9,62.4,69.7,63.5,59.8,93,89,78,29.84,29.64,55,1,55,0.08
2013-9-11,82.9,67.2,59.7,66.0,60.5,53.5,91,80,53,29.90,29.83,58,2,58,0.10
2013-9-12,60.1,55.0,49.6,54.1,48.9,42.7,86,80,74,30.13,29.88,41,1,41,0.00
2013-9-13,61.9,50.3,40.3,47.3,41.2,35.8,87,72,54,30.21,30.05,5,0,5,0.00
2013-9-14,72.0,57.4,42.4,54.3,47.0,37.3,84,70,49,30.05,29.84,48,0,48,0.00
2013-9-15,62.2,51.9,43.0,51.5,46.1,38.7,88,81,66,30.24,29.84,32,0,32,0.16
2013-9-16,61.3,48.0,39.4,48.3,41.0,35.8,89,78,58,30.38,30.24,26,0,26,0.00
2013-9-17,70.2,55.6,41.5,49.7,43.6,36.8,86,66,42,30.28,30.02,48,1,48,0.00
2013-9-18,65.1,59.4,51.4,59.0,54.3,46.6,88,83,79,30.03,29.80,14,1,14,0.00
2013-9-19,77.9,69.1,62.1,68.1,63.7,58.5,91,83,71,29.82,29.59,52,2,52,0.10
2013-9-20,70.3,63.1,52.3,64.6,58.0,47.3,91,84,69,29.71,29.56,50,1,50,0.20
2013-9-21,52.3,47.6,44.2,47.6,42.4,38.7,89,82,72,29.93,29.71,50,1,50,0.20
2013-9-22,50.2,45.2,38.8,42.8,39.7,34.6,87,81,71,30.06,29.93,22,0,22,0.00
2013-9-23,65.8,50.6,37.0,50.4,42.7,33.4,89,76,56,30.08,29.99,7,1,7,0.00
2013-9-24,70.5,54.2,41.7,55.3,47.2,38.1,90,78,56,30.06,29.93,42,1,42,0.00
2013-9-25,72.1,55.7,45.1,59.3,49.2,41.5,89,80,59,29.99,29.94,56,1,56,0.00
2013-9-26,73.8,54.7,40.8,57.9,47.8,37.3,90,79,50,30.04,29.97,47,1,47,0.00
2013-9-27,79.3,64.1,50.7,59.2,51.2,44.9,82,64,43,30.06,29.94,17,2,17,0.00
2013-9-28,76.1,65.8,55.6,59.3,53.2,46.0,81,65,48,29.97,29.64,18,2,18,0.00
2013-9-29,71.4,58.0,49.1,52.6,46.8,42.7,81,67,48,29.91,29.77,54,1,54,0.10
2013-9-30,71.4,53.8,49.6,51.6,45.0,43.1,80,72,49,29.88,29.72,12,2,12,0.00